1st Responders/1st Detectors/Storm Spotters Weather Summary for Harrison County, KY

Forecast Maps


Reg. NEXRAD Animation


National Fire Danger: Day 1 & 2 Map

Current NWS Watch/Warnings

SPC Convective Day 1 Outlook


Day 2 Outlook

(Click images to enlarge|Page will refresh every 5 minutes)
UK Ag. Weather Center Desktop Severe Weather Service[HERE]
Harrison County, KY Hazardous Weather Outlook Webcast
(9 AM to 9 PM Mon-Fri)
[Fast]
[Dial-up]


UKAWC 1st Detectors/1st Responders Precision Weather Forecast For HARRISON County, Kentucky
(based on the NWS County Digital Forecast)

ISSUED AT 13:00 UTC ON FRIDAY SEP 18 2020
DAY FRIDAY
EDT 3HR 10A 11A NOON 1P 2P 3P 4P 5P 6P 7P
MAX/MIN -- -- -- -- -- -- -- -- -- 68°
TEMP 58° 61° 63° 65° 67° 67° 68° 67° 65° 63°
SKY COVER 1% 1% 1% 1% 1% 6% 9% 8% 11% 6%
Clouds
DEW PT 49° 49° 49° 49° 49° 49° 47° 47° 47° 45°
RH 72% 67% 58% 54% 50% 50% 47% 46% 50% 52%
POP 12HR -- -- -- -- -- -- -- -- -- --
RAIN/SNOW (liq.equ) -- -- -- -- 0.00in -- -- -- -- --
SNOWFALL -- -- -- -- 0in -- -- -- -- --
WIND SPEED(MPH) 10 13 13 13 13 13 13 13 10 9
WIND Gust(MPH) 21 21 18 17 17 17 17 17 16 17
WIND DIR N N N N N N N N N N
DEW -- -- -- -- -- -- -- -- -- --
HeatIndex 58 61 63 65 67 67 68 67 65 63
Fog -- -- -- -- -- -- -- -- -- --
WIND CHILL -- -- -- -- -- -- -- -- -- --
SPRAY COND
DRY COND
LIVESTOCK HEATSTRESS 58.12 60.60 62.03 63.43 64.75 64.75 65.32 64.56 63.30 61.89



DAY SATURDAY SUNDAY MONDAY TUESDAY WEDNESDAY THURSDAY
EDT 6HR 8P 9P 10P 11P MIDN 1A 2A 3A 4A 5A 6A 7A 8A 9A 10A 11A NOON 1P 2P 3P 4P 5P 6P 7P 8P 9P 11P 2A 5A 8A 11A 2P 5P 8P 2A 8A 2P 8P 2A 8A 2P 8P 2A 8A 2P 8P 2A 8A 2P 8P
MAX/MIN -- -- -- -- -- -- -- -- -- -- -- -- 43° -- -- -- -- -- -- -- -- -- -- 67° -- -- -- -- -- 41° -- -- 70° -- -- 43° 70° -- -- 43° 74° -- -- 47° 76° -- -- 52° 79° --
TEMP 59° 58° 56° 54° 52° 49° 47° 47° 45° 45° 43° 43° 43° 47° 54° 58° 63° 65° 65° 67° 67° 67° 65° 61° 58° 56° 50° 47° 43° 43° 58° 67° 68° 59° 49° 45° 67° 61° 49° 45° 70° 61° 52° 49° 74° 67° 58° 54° 76° 67°
SKY COVER 5% 0% 0% 0% 0% 0% 0% 0% 0% 0% 0% 0% 0% 0% 0% 0% 0% 0% 0% 0% 0% 0% 0% 0% 0% 0% 0% 0% 0% 0% 0% 0% 0% 0% 1% 2% 2% 3% 5% 5% 8% 6% 6% 6% 7% 11% 8% 10% 11% 19%
Clouds
DEW PT 45° 43° 41° 40° 40° 38° 38° 38° 38° 38° 36° 36° 38° 38° 40° 40° 41° 41° 43° 41° 43° 41° 40° 40° 40° 40° 40° 38° 38° 36° 43° 45° 45° 43° 40° 40° 43° 45° 43° 41° 47° 49° 47° 45° 54° 56° 54° 52° 56° 56°
RH 60% 59% 58% 61% 63% 65% 67% 71% 73% 76% 76% 76% 79% 71% 58% 50% 46% 43% 42% 40% 40% 39% 41% 45% 51% 56% 65% 73% 79% 76% 55% 43% 42% 55% 68% 82% 41% 56% 82% 89% 42% 64% 82% 86% 48% 70% 86% 92% 51% 67%
POP 12HR 1% -- -- -- -- -- -- -- -- -- -- -- 0% -- -- -- -- -- -- -- -- -- -- -- 0% -- -- -- -- 0% -- -- -- 0% -- 0% -- 0% -- 0% -- 1% -- 2% -- 2% -- 1% -- 9%
RAIN/SNOW (liq.equ) 0.00in -- -- -- -- -- 0.00in -- -- -- -- -- 0.00in -- -- -- -- -- 0.00in -- -- -- -- -- 0.00in -- -- 0.00in -- 0.00in -- 0.00in -- 0.00in 0.00in 0.00in -- -- -- -- -- -- -- -- -- -- -- -- -- --
SNOWFALL 0in -- -- -- -- -- 0in -- -- -- -- -- 0in -- -- -- -- -- 0in -- -- -- -- -- 0in -- -- 0in -- 0in -- 0in -- 0in 0in 0in -- -- -- -- -- -- -- -- -- -- -- -- -- --
WIND SPEED(MPH) 7 7 7 7 7 7 7 6 6 6 6 6 6 7 8 8 8 8 8 8 8 8 8 7 6 6 5 2 2 2 6 7 7 6 2 2 6 5 1 0 1 1 0 1 5 1 1 1 7 2
WIND DIR N N NE NE NE NE NE NE NE NE NE NE NE NE NE NE NE NE NE NE NE NE NE NE NE NE NE NE NE NE NE E E NE E E E E E E N NW S SW W W SW SW W W
HeatIndex 59 58 56 54 52 49 47 47 45 41 40 40 40 47 54 58 63 65 65 67 67 67 65 61 58 56 50 47 42 42 58 67 68 59 49 43 67 61 49 45 70 61 52 49 74 67 58 54 76 67
Fog -- -- -- -- -- -- -- -- -- -- -- -- -- -- -- -- -- -- -- -- -- -- -- -- -- -- -- Patchy Patchy Patchy -- -- -- -- -- -- -- -- -- -- -- -- -- -- -- -- -- -- -- --
WIND CHILL -- -- -- -- -- -- -- -- 42° 42° 39° 39° 39° -- -- -- -- -- -- -- -- -- -- -- -- -- -- -- -- -- -- -- -- -- -- -- -- -- -- -- -- -- -- -- -- -- -- -- -- --
SPRAY COND
DRY COND
LIVESTOCK HEATSTRESS 58.96 58.18 56.65 55.03 53.38 50.89 49.14 48.88 47.05 46.82 45.09 45.09 44.82 48.88 55.11 58.22 61.75 63.06 63.02 64.29 64.29 64.25 62.99 60.33 58.22 56.68 51.69 48.75 44.82 45.09 58.20 64.43 65.07 58.95 50.72 46.37 64.34 60.47 49.97 45.83 66.43 60.56 52.67 49.75 69.65 65.65 58.06 54.21 71.36 65.51

Click on individual weather variable above in left-hand column (ie., TEMP, RH, QPF 12HR) to view state forecast maps






NWS 48 Hr. Forecast Maps,

Regional Hourly Observations For HARRISON County, Kentucky
Issued at 1000 AM EDT FRI SEP 18 2020
NORTHEAST KENTUCKY
  
CITY           SKY/WX    TMP DP  RH WIND       PRES   REMARKS
LEXINGTON      FAIR      59  51  75 NE14      30.16                   
COVINGTON      FAIR      59  45  59 N15       30.19                   
FRANKFORT      FAIR      61  50  67 N9G18     30.17                   


Current NOWCAST not available:
Nowcasts are not issued routinely during fair weather. Only when
precipitation or other significant weather is occuring in this county will these
forecasts be issued. Currently, there is no short term forecast in effect.


Fire Weather Forecast For HARRISON County, KY
Provided by the National Weather Service:

Issued at: Fri Sep 18 09:05:01 EDT 2020


                      Today        Tonight      Sat          

CLOUD COVER           Mclear       Clear        Clear        
PRECIP TYPE           None         None         None         
CHANCE PRECIP (%)     0            0            0            
TEMP (24H TREND)      68 (-13)     43 (-12)     69           
RH % (24H TREND)      46 (-5)      83 (-10)     40           
20FTWND-VAL/AM(MPH)   N  8 G18                  NE  6        
20FTWND-RDG/PM(MPH)   N 10         NE  7        NE  7        
PRECIP AMOUNT         0.00         0.00         0.00         
MIXING HGT(FT-AGL/MSL)4849                      4766         
TRANSPORT WND (MPH)   NE 20                     NE 13        
VENT RATE (KT-FT)     81634                     55673        
DISPERSION            Good                      Good         
DSI                   SLGT UNSTBL  SLGT UNSTBL  SLGT UNSTBL  
LAL                   1            1            1            
HAINES INDEX          2            2            4            
ADI EARLY             54 GEN GOOD  8 POOR       35 FAIR      
ADI LATE              56 GEN GOOD  6 VERY POOR  50 GEN GOOD  
MAX LVORI EARLY       4            3            4            
MAX LVORI LATE        1            4            1            

REMARKS...ADI IS ATMOSPHERIC DISPERSION INDEX BY LAVDAS.        
LVORI IS LOW VISIBILITY OCCURRENCE RISK INDEX.

.SUNDAY...Clear. Lows in the lower 40s. Highs in the lower 70s.
Northeast winds around 5 mph. 
.MONDAY...Clear. Lows in the mid 40s. Highs in the lower 70s.
Northeast winds around 5 mph. 
.TUESDAY...Mostly clear. Lows in the mid 40s. Highs in the mid
70s. North winds up to 5 mph. 
.WEDNESDAY...Mostly clear. Lows in the upper 40s. Highs in the
upper 70s. West winds up to 5 mph. 
.THURSDAY...Mostly clear. Lows in the lower 50s. Highs in the
upper 70s. West winds up to 5 mph. 

SPC's Fire Weather Web Tool (Excellent!), SPC's Fire Weather Outlooks, NWS Fire Weather WEB, Fire Danger Class Map,
Keetch-Byram Drought Index, ROMAN Web, Haines Index ,
WFAS's 10-hr Dead Fuel Moist., WFAS's 100-hr Dead Fuel Moist., Probablity of Ignition, Visual blackness Map, Palmer Drought Index, HPC's Rainfall Forecast Maps


Hazardous Weather Outlook For HARRISON County, Kentucky
313 AM EDT Fri Sep 18 2020 /213 AM CDT Fri Sep 18 2020/

 DAY ONE  Today and Tonight.

No hazardous weather is expected at this time.

 DAYS TWO THROUGH SEVEN  Saturday through Thursday.

No hazardous weather is expected at this time.
 
 SPOTTER INFORMATION STATEMENT  

Spotter activation is not anticipated.

Latest HARRISON County, Kentucky Watches, Warnings and Advisories.
Additional Drought Info.: UKAWC Drought Page, Kentucky Drought Watch


7-Day Forecast For HARRISON County, KY

TODAY
Mostly sunny. Highs in the upper 60s. North winds 5 to 15 mph.

TONIGHT
Clear. Lows in the lower 40s. Northeast winds 5 to 10 mph.

SATURDAY
Sunny. Highs in the upper 60s. Northeast winds 5 to 10 mph.

SATURDAY NIGHT
Clear. Lows in the lower 40s. Northeast winds up to 10 mph.

SUNDAY
Sunny. Highs around 70. Northeast winds 5 to 10 mph.

SUNDAY NIGHT
Clear. Lows in the mid 40s.

MONDAY
Sunny. Highs in the lower 70s.

MONDAY NIGHT
Clear. Lows in the lower 40s.

TUESDAY
Mostly sunny. Highs in the mid 70s.

TUESDAY NIGHT
Mostly clear. Lows in the upper 40s.

WEDNESDAY
Mostly sunny. Highs in the upper 70s.

WEDNESDAY NIGHT
Mostly clear. Lows in the lower 50s.

THURSDAY
Mostly sunny. Highs in the upper 70s.

Ag Weather Center, Department of Biosystems & Agricultural Engineering, University of Kentucky